FENGYUN 1C DEB, 29987

Orbit data source: Space-Track

FENGYUN 1C DEB, 29987 is space debris in SSO originally from a launch on Mon, 10 May 1999 UTC launched from the Taiyaun Space Center, China (TSC). Fengyun 1C debris stems from the Chinese weather satellite Fengyun-1C, which was intentionally destroyed by a Chinese anti-satellite missile in 2007. This event dramatically increased the amount of space debris, with thousands of trackable fragments posing hazards to satellites and human spaceflight. The Fengyun 1C debris cloud has become a focal point in discussions about space sustainability and the need for international regulations to prevent the creation of new debris.

Loading next visibility...
Identifier
29987, 1999-025LM
Orbit
SSO
Country
Flag of CNCN / PRC
Related business
Manufacturer
Unknown
Mission
Spacecraft
Bus & Motor
Unknown
Mass
Unknown
Launch date (UTC)
1999-05-10 (27 years ago)
Launch vehicle
Unknown
Launch site
Taiyaun Space Center, China (TSC)
Object type
Payload
Rocket body
Debris
Shape & HBR
Unknown shape, 0.1 m
Radar Cross Section
Small (<0.1 m²)

Expand to show TLE details & history
Last TLE update: 23 hours ago

TLE from 23 hours ago
0 FENGYUN 1C DEB
1 29987U 99025LM  26070.62447447  .00004383  00000-0  21972-2 0  9994
2 29987  98.8954 327.3621 0081562 340.6682  86.2692 14.15416806976309
Epoch: 2026-03-11T14:59Z
TLE epoch observation values (Epoch: 2026-03-11T14:59:14.594Z)
Latitude
66.31933°
Longitude
-87.52764°
Altitude
848.962 km
Speed
7.436 km/s
True Right ascension
20h 26m 16s
True Declination
66° 11' 39"
Sunlit
Object was in daylight at epoch
Visualization orbit readout
Latitude
Unknown
Longitude
Unknown
Altitude
Unknown
Speed
Unknown
Apparent Right ascension
Unknown
Apparent Declination
Unknown
Sunlit
N/A
Visualization observer readout
Local Sidereal Time
18:38:04
Azimuth
Unknown
Elevation
Unknown
Doppler factor
Unknown
Orbital elements
Apogee altitude
896.925 km
Perigee altitude
779.211 km
Semi-major axis
7,216.205 km
Eccentricity
0.00816
Inclination
98.8954°
RAAN
327.3621°
Arg. of periapsis
340.6682°
True anomaly
87.20243°
Mean anomaly
86.2692°
Eccentric anomaly
86.73576°
Mean motion
3.54062 °/min
Orbital period
101.68 mins
BSTAR
0.0021972
Loading maneuver chart data...
Computing Atmospheric mass density...
Loading historical data...
Loading historical data...
Loading historical data...
Loading historical data...
Loading historical data...
Loading historical data...
Loading historical data...

Documentation

Showing up to 5 results
|